H1 CPF 2 NER 2024 4 17 9 108 01 glonass138 H2 1805301 9138 43508 2024 4 17 0 0 0 2024 4 20 23 45 0 900 1 1 0 0 0 1 H9 10 0 60417 0.00000 0 7075522.377 -11845656.994 21476055.276 10 0 60417 900.00000 0 7819998.198 -9240605.192 22472812.587 10 0 60417 1800.00000 0 8790562.638 -6608718.201 23034055.566 10 0 60417 2700.00000 0 9971570.368 -4018422.302 23148863.217 10 0 60417 3600.00000 0 11335416.737 -1534678.971 22814943.088 10 0 60417 4500.00000 0 12843568.490 783493.652 22038680.391 10 0 60417 5400.00000 0 14448068.768 2885244.789 20835022.079 10 0 60417 6300.00000 0 16093455.039 4729769.326 19227197.444 10 0 60417 7200.00000 0 17719011.323 6287763.146 17246279.672 10 0 60417 8100.00000 0 19261261.870 7542395.594 14930595.677 10 0 60417 9000.00000 0 20656602.988 8489758.919 12324994.370 10 0 60417 9900.00000 0 21843963.329 9138776.117 9479986.389 10 0 60417 10800.00000 0 22767381.244 9510571.180 6450770.962 10 0 60417 11700.00000 0 23378390.590 9637328.285 3296168.085 10 0 60417 12600.00000 0 23638113.911 9560688.058 77476.466 10 0 60417 13500.00000 0 23518973.786 9329748.873 -3142720.524 10 0 60417 14400.00000 0 23005948.888 8998758.043 -6301777.256 10 0 60417 15300.00000 0 22097320.400 8624591.296 -9338212.029 10 0 60417 16200.00000 0 20804875.928 8264128.103 -12192912.271 10 0 60417 17100.00000 0 19153561.061 7971635.102 -14810294.273 10 0 60417 18000.00000 0 17180592.256 7796269.615 -17139393.854 10 0 60417 18900.00000 0 14934067.600 7779810.125 -19134865.875 10 0 60417 19800.00000 0 12471133.338 7954710.929 -20757872.534 10 0 60417 20700.00000 0 9855782.863 8342564.185 -21976842.710 10 0 60417 21600.00000 0 7156380.265 8953035.171 -22768087.472 10 0 60417 22500.00000 0 4443012.007 9783316.345 -23116259.887 10 0 60417 23400.00000 0 1784777.329 10818123.611 -23014650.427 10 0 60417 24300.00000 0 -752869.711 12030235.244 -22465312.668 10 0 60417 25200.00000 0 -3110616.138 13381550.873 -21479017.254 10 0 60417 26100.00000 0 -5237520.475 14824625.965 -20075035.527 10 0 60417 27000.00000 0 -7092885.645 16304617.188 -18280757.428 10 0 60417 27900.00000 0 -8647697.564 17761556.761 -16131151.523 10 0 60417 28800.00000 0 -9885570.873 19132860.017 -13668077.991 10 0 60417 29700.00000 0 -10803164.130 20355960.634 -10939468.307 10 0 60417 30600.00000 0 -11410049.033 21370962.679 -7998387.835 10 0 60417 31500.00000 0 -11728041.199 22123197.872 -4901999.978 10 0 60417 32400.00000 0 -11790022.576 22565580.605 -1710452.305 10 0 60417 33300.00000 0 -11638306.874 22660661.810 1514293.347 10 0 60417 34200.00000 0 -11322618.394 22382295.495 4709663.769 10 0 60417 35100.00000 0 -10897770.741 21716848.191 7813686.731 10 0 60417 36000.00000 0 -10421144.170 20663900.750 10766189.240 10 0 60417 36900.00000 0 -9950068.512 19236413.274 13509958.568 10 0 60417 37800.00000 0 -9539222.181 17460346.339 15991843.933 10 0 60417 38700.00000 0 -9238156.795 15373754.289 18163778.098 10 0 60417 39600.00000 0 -9089051.305 13025388.144 19983699.839 10 0 60417 40500.00000 0 -9124789.799 10472865.838 21416360.371 10 0 60417 41400.00000 0 -9367443.367 7780485.054 22433999.048 10 0 60417 42300.00000 0 -9827219.645 5016768.562 23016876.147 10 0 60417 43200.00000 0 -10501924.168 2251842.631 23153653.112 10 0 60417 44100.00000 0 -11376956.559 -445244.130 22841613.351 10 0 60417 45000.00000 0 -12425842.449 -3009151.746 22086719.367 10 0 60417 45900.00000 0 -13611279.961 -5380721.955 20903504.842 10 0 60417 46800.00000 0 -14886658.211 -7509192.025 19314803.096 10 0 60417 47700.00000 0 -16197985.625 -9354058.343 17351316.236 10 0 60417 48600.00000 0 -17486148.590 -10886513.035 15051032.156 10 0 60417 49500.00000 0 -18689406.856 -12090394.272 12458499.436 10 0 60417 50400.00000 0 -19746021.719 -12962610.813 9623973.015 10 0 60417 51300.00000 0 -20596906.888 -13513023.169 6602446.191 10 0 60417 52200.00000 0 -21188190.426 -13763786.399 3452587.012 10 0 60417 53100.00000 0 -21473579.237 -13748182.199 235599.390 10 0 60417 54000.00000 0 -21416425.451 -13508989.646 -2985968.888 10 0 60417 54900.00000 0 -20991406.222 -13096463.666 -6149447.687 10 0 60417 55800.00000 0 -20185744.537 -12566007.151 -9193271.038 10 0 60417 56700.00000 0 -18999917.980 -11975635.914 -12058183.882 10 0 60417 57600.00000 0 -17447824.021 -11383344.673 -14688404.528 10 0 60417 58500.00000 0 -15556393.571 -10844486.547 -17032719.167 10 0 60417 59400.00000 0 -13364667.929 -10409278.028 -19045486.289 10 0 60417 60300.00000 0 -10922377.120 -10120535.950 -20687530.819 10 0 60417 61200.00000 0 -8288078.691 -10011742.977 -21926910.123 10 0 60417 62100.00000 0 -5526934.614 -10105524.035 -22739536.875 10 0 60417 63000.00000 0 -2708219.032 -10412598.395 -23109646.756 10 0 60417 63900.00000 0 97339.157 -10931251.903 -23030102.122 10 0 60417 64800.00000 0 2820268.228 -11647351.556 -22502526.170 10 0 60417 65700.00000 0 5395007.325 -12534901.717 -21537265.395 10 0 60417 66600.00000 0 7762391.833 -13557118.246 -20153181.555 10 0 60417 67500.00000 0 9871867.634 -14667974.990 -18377277.595 10 0 60417 68400.00000 0 11683342.992 -15814157.127 -16244165.209 10 0 60417 69300.00000 0 13168602.097 -16937338.773 -13795384.749 10 0 60417 70200.00000 0 14312222.842 -17976688.555 -11078591.067 10 0 60417 71100.00000 0 15111962.227 -18871497.378 -8146621.410 10 0 60417 72000.00000 0 15578595.168 -19563817.461 -5056463.900 10 0 60417 72900.00000 0 15735215.412 -20001001.340 -1868146.964 10 0 60417 73800.00000 0 15616029.798 -20138033.868 1356428.376 10 0 60417 74700.00000 0 15264698.289 -19939559.023 4554690.340 10 0 60417 75600.00000 0 14732291.039 -19381516.326 7664608.844 10 0 60417 76500.00000 0 14074949.668 -18452318.148 10625895.001 10 0 60417 77400.00000 0 13351351.952 -17153518.509 13381164.521 10 0 60417 78300.00000 0 12620087.061 -15499945.300 15877042.806 10 0 60417 79200.00000 0 11937051.840 -13519290.147 18065190.956 10 0 60417 80100.00000 0 11352977.366 -11251172.701 19903233.537 10 0 60417 81000.00000 0 10911189.296 -8745717.706 21355571.059 10 0 60417 81900.00000 0 10645695.505 -6061703.198 22394062.422 10 0 60417 82800.00000 0 10579680.792 -3264355.682 22998564.945 10 0 60417 83700.00000 0 10724471.427 -422882.479 23157322.280 10 0 60417 84600.00000 0 11079012.898 2392157.911 22867193.137 10 0 60417 85500.00000 0 11629882.995 5111539.900 22133716.471 10 0 60418 0.00000 0 12351840.190 7669999.374 20971011.742 10 0 60418 900.00000 0 13208885.640 10008700.396 19401514.829 10 0 60418 1800.00000 0 14155794.363 12077435.351 17455555.412 10 0 60418 2700.00000 0 15140053.743 13836472.506 15170780.790 10 0 60418 3600.00000 0 16104128.135 15257971.145 12591437.498 10 0 60418 4500.00000 0 16987955.534 16326906.895 9767522.919 10 0 60418 5400.00000 0 17731571.684 17041468.436 6753822.420 10 0 60418 6300.00000 0 18277751.148 17412908.881 3608849.950 10 0 60418 7200.00000 0 18574553.536 17464858.006 393712.350 10 0 60418 8100.00000 0 18577666.596 17232124.242 -2829080.544 10 0 60418 9000.00000 0 18252446.012 16759037.057 -5996836.485 10 0 60418 9900.00000 0 17575564.228 16097400.004 -9047907.613 10 0 60418 10800.00000 0 16536197.042 15304141.441 -11922898.670 10 0 60418 11700.00000 0 15136696.197 14438762.960 -14565832.133 10 0 60418 12600.00000 0 13392718.026 13560694.264 -16925246.561 10 0 60418 13500.00000 0 11332801.343 12726667.241 -18955205.890 10 0 60418 14400.00000 0 8997411.174 11988221.081 -20616199.427 10 0 60418 15300.00000 0 6437487.597 11389444.590 -21875914.527 10 0 60418 16200.00000 0 3712559.879 10965051.550 -22709866.812 10 0 60418 17100.00000 0 888504.397 10738870.642 -23101875.727 10 0 60418 18000.00000 0 -1964960.279 10722813.645 -23044376.438 10 0 60418 18900.00000 0 -4776936.844 10916365.195 -22538562.387 10 0 60418 19800.00000 0 -7478060.505 11306615.192 -21594356.184 10 0 60418 20700.00000 0 -10003145.432 11868831.930 -20230209.853 10 0 60418 21600.00000 0 -12293656.695 12567551.128 -18472738.769 10 0 60418 22500.00000 0 -14299905.535 13358134.311 -16356196.760 10 0 60418 23400.00000 0 -15982877.393 14188730.160 -13921802.988 10 0 60418 24300.00000 0 -17315617.731 15002555.542 -11216934.010 10 0 60418 25200.00000 0 -18284119.260 15740399.470 -8294197.045 10 0 60418 26100.00000 0 -18887675.093 16343243.948 -5210402.845 10 0 60418 27000.00000 0 -19138684.839 16754890.809 -2025458.464 10 0 60418 27900.00000 0 -19061923.549 16924483.504 1198798.232 10 0 60418 28800.00000 0 -18693305.916 16808817.391 4399799.327 10 0 60418 29700.00000 0 -18078199.185 16374341.085 7515459.409 10 0 60418 30600.00000 0 -17269356.939 15598764.586 10485376.299 10 0 60418 31500.00000 0 -16324561.608 14472206.493 13251996.791 10 0 60418 32400.00000 0 -15304075.312 12997832.022 15761725.136 10 0 60418 33300.00000 0 -14268006.382 11191954.806 17965953.401 10 0 60418 34200.00000 0 -13273701.982 9083597.746 19821994.459 10 0 60418 35100.00000 0 -12373275.785 6713530.575 21293900.490 10 0 60418 36000.00000 0 -11611373.791 4132823.264 22353152.081 10 0 60418 36900.00000 0 -11023271.178 1400974.257 22979205.468 10 0 60418 37800.00000 0 -10633379.273 -1416310.097 23159888.067 10 0 60418 38700.00000 0 -10454224.676 -4249594.372 22891635.084 10 0 60418 39600.00000 0 -10485943.053 -7028349.942 22179562.729 10 0 60418 40500.00000 0 -10716308.885 -9683640.205 21037376.383 10 0 60418 41400.00000 0 -11121300.313 -12150745.252 19487114.844 10 0 60418 42300.00000 0 -11666176.055 -14371618.227 17558734.697 10 0 60418 43200.00000 0 -12307020.009 -16297072.218 15289541.708 10 0 60418 44100.00000 0 -12992689.516 -17888607.292 12723479.005 10 0 60418 45000.00000 0 -13667086.066 -19119801.729 9910284.665 10 0 60418 45900.00000 0 -14271653.349 -19977209.363 6904534.023 10 0 60418 46800.00000 0 -14747997.473 -20460725.323 3764584.521 10 0 60418 47700.00000 0 -15040518.509 -20583404.520 551443.242 10 0 60418 48600.00000 0 -15098941.508 -20370740.338 -2672420.859 10 0 60418 49500.00000 0 -14880638.929 -19859433.770 -5844296.582 10 0 60418 50400.00000 0 -14352644.861 -19095704.942 -8902457.517 10 0 60418 51300.00000 0 -13493274.294 -18133218.616 -11787371.687 10 0 60418 52200.00000 0 -12293277.244 -17030711.729 -14442869.296 10 0 60418 53100.00000 0 -10756477.334 -15849423.871 -16817244.780 10 0 60418 54000.00000 0 -8899866.299 -14650439.960 -18864270.898 10 0 60418 54900.00000 0 -6753149.030 -13492058.071 -20544104.418 10 0 60418 55800.00000 0 -4357757.135 -12427294.131 -21824065.362 10 0 60418 56700.00000 0 -1765371.510 -11501629.187 -22679274.459 10 0 60418 57600.00000 0 963984.918 -10751094.395 -23093136.510 10 0 60418 58500.00000 0 3764204.942 -10200774.321 -23057660.471 10 0 60418 59400.00000 0 6565611.425 -9863791.227 -22573610.418 10 0 60418 60300.00000 0 9297623.687 -9740812.457 -21650484.905 10 0 60418 61200.00000 0 11891465.050 -9820100.854 -20306325.536 10 0 60418 62100.00000 0 14282799.144 -10078105.094 -18567358.930 10 0 60418 63000.00000 0 16414185.659 -10480564.053 -16467479.404 10 0 60418 63900.00000 0 18237253.888 -10984077.613 -14047582.824 10 0 60418 64800.00000 0 19714504.321 -11538076.691 -11354764.898 10 0 60418 65700.00000 0 20820664.249 -12087108.516 -8441399.843 10 0 60418 66600.00000 0 21543542.057 -12573339.938 -5364117.703 10 0 60418 67500.00000 0 21884345.954 -12939172.507 -2182700.543 10 0 60418 68400.00000 0 21857455.409 -13129858.459 1041080.701 10 0 60418 69300.00000 0 21489656.440 -13096006.865 4244665.790 10 0 60418 70200.00000 0 20818874.349 -12795874.033 7365917.680 10 0 60418 71100.00000 0 19892458.390 -12197341.454 10344324.359 10 0 60418 72000.00000 0 18765091.415 -11279497.914 13122166.826 10 0 60418 72900.00000 0 17496412.920 -10033759.067 15645630.880 10 0 60418 73800.00000 0 16148455.528 -8464477.189 17865841.794 10 0 60418 74700.00000 0 14783002.362 -6589015.123 19739802.518 10 0 60418 75600.00000 0 13458975.628 -4437280.606 21231218.194 10 0 60418 76500.00000 0 12229965.103 -2050739.452 22311191.926 10 0 60418 77400.00000 0 11141999.117 519052.496 22958779.264 10 0 60418 78300.00000 0 10231650.401 3212339.046 23161391.361 10 0 60418 79200.00000 0 9524555.171 5963398.112 22915039.498 10 0 60418 80100.00000 0 9034406.772 8703029.859 22224416.359 10 0 60418 81000.00000 0 8762465.589 11361197.010 21102812.258 10 0 60418 81900.00000 0 8697605.638 13869709.319 19571867.302 10 0 60418 82800.00000 0 8816896.128 16164842.034 17661163.424 10 0 60418 83700.00000 0 9086693.964 18189780.542 15407662.999 10 0 60418 84600.00000 0 9464201.920 19896790.132 12855003.702 10 0 60418 85500.00000 0 9899427.463 21249020.653 10052662.099 10 0 60419 0.00000 0 10337460.142 22221870.636 7055001.407 10 0 60419 900.00000 0 10720971.905 22803853.941 3920219.537 10 0 60419 1800.00000 0 10992834.017 22996930.984 709221.502 10 0 60419 2700.00000 0 11098740.235 22816291.880 -2515567.244 10 0 60419 3600.00000 0 10989723.753 22289598.892 -5691419.148 10 0 60419 4500.00000 0 10624460.411 21455720.458 -8756531.756 10 0 60419 5400.00000 0 9971259.117 20363010.079 -11651238.738 10 0 60419 6300.00000 0 9009653.622 19067202.880 -14319180.189 10 0 60419 7200.00000 0 7731526.639 17629019.028 -16708408.391 10 0 60419 8100.00000 0 6141717.134 16111575.687 -18772406.659 10 0 60419 9000.00000 0 4258083.661 14577717.226 -20471000.763 10 0 60419 9900.00000 0 2111019.710 13087376.786 -21771144.729 10 0 60419 10800.00000 0 -257559.665 11695080.730 -22647565.537 10 0 60419 11700.00000 0 -2795718.347 10447701.172 -23083254.259 10 0 60419 12600.00000 0 -5443424.561 9382551.023 -23069794.292 10 0 60419 13500.00000 0 -8134821.206 8525901.207 -22607520.684 10 0 60419 14400.00000 0 -10800746.640 7891981.630 -21705507.876 10 0 60419 15300.00000 0 -13371401.032 7482506.913 -20381386.583 10 0 60419 16200.00000 0 -15779047.385 7286745.606 -18660993.777 10 0 60419 17100.00000 0 -17960634.998 7282128.640 -16577862.970 10 0 60419 18000.00000 0 -19860236.382 7435370.005 -14172565.104 10 0 60419 18900.00000 0 -21431196.630 7704051.104 -11491913.156 10 0 60419 19800.00000 0 -22637906.290 8038600.705 -8588046.283 10 0 60419 20700.00000 0 -23457124.648 8384585.847 -5517411.648 10 0 60419 21600.00000 0 -23878799.249 8685216.055 -2339664.090 10 0 60419 22500.00000 0 -23906348.623 8883954.383 883494.683 10 0 60419 23400.00000 0 -23556397.755 8927124.449 4089514.445 10 0 60419 24300.00000 0 -22857978.693 8766403.051 7216208.906 10 0 60419 25200.00000 0 -21851231.052 8361092.939 10202958.665 10 0 60419 26100.00000 0 -20585657.939 7680079.749 12991881.385 10 0 60419 27000.00000 0 -19118011.118 6703390.592 15528946.872 10 0 60419 27900.00000 0 -17509894.465 5423288.508 17765015.987 10 0 60419 28800.00000 0 -15825186.041 3844856.497 19656784.010 10 0 60419 29700.00000 0 -14127386.371 1986046.053 21167611.084 10 0 60419 30600.00000 0 -12477003.076 -122812.721 22268224.625 10 0 60419 31500.00000 0 -10929080.300 -2440020.088 22937280.969 10 0 60419 32400.00000 0 -9530975.045 -4913994.164 23161776.160 10 0 60419 33300.00000 0 -8320472.216 -7485176.656 22937298.365 10 0 60419 34200.00000 0 -7324316.140 -10088279.352 22268117.212 10 0 60419 35100.00000 0 -6557219.134 -12654779.846 21167108.072 10 0 60419 36000.00000 0 -6021388.052 -15115564.460 19655512.166 10 0 60419 36900.00000 0 -5706588.436 -17403609.968 17762536.229 10 0 60419 37800.00000 0 -5590743.567 -19456593.702 15524798.382 10 0 60419 38700.00000 0 -5641043.550 -21219324.131 12985629.681 10 0 60419 39600.00000 0 -5815518.103 -22645890.837 10194243.711 10 0 60419 40500.00000 0 -6065007.144 -23701444.077 7204789.304 10 0 60419 41400.00000 0 -6335446.218 -24363529.093 4075303.951 10 0 60419 42300.00000 0 -6570370.170 -24622918.653 866587.892 10 0 60419 43200.00000 0 -6713528.775 -24483908.192 -2358979.318 10 0 60419 44100.00000 0 -6711502.905 -23964060.495 -5538656.381 10 0 60419 45000.00000 0 -6516209.349 -23093410.137 -8610567.623 10 0 60419 45900.00000 0 -6087186.857 -21913160.861 -11514915.366 10 0 60419 46800.00000 0 -5393565.045 -20473930.716 -14195152.741 10 0 60419 47700.00000 0 -4415631.205 -18833619.085 -16599093.078 10 0 60419 48600.00000 0 -3145927.109 -17054985.793 -18679933.414 10 0 60419 49500.00000 0 -1589827.924 -15203044.724 -20397171.523 10 0 60419 50400.00000 0 234422.594 -13342382.096 -21717398.153 10 0 60419 51300.00000 0 2296223.312 -11534512.522 -22614948.882 10 0 60419 52200.00000 0 4553652.922 -9835384.142 -23072402.955 10 0 60419 53100.00000 0 6954990.364 -8293137.473 -23080919.617 10 0 60419 54000.00000 0 9440655.414 -6946211.651 -22640405.790 10 0 60419 54900.00000 0 11945488.717 -5821876.739 -21759512.228 10 0 60419 55800.00000 0 14401276.243 -4935252.657 -20455458.694 10 0 60419 56700.00000 0 16739413.037 -4288854.586 -18753691.971 10 0 60419 57600.00000 0 18893595.290 -3872682.375 -16687383.745 10 0 60419 58500.00000 0 20802428.586 -3664848.595 -14296778.497 10 0 60419 59400.00000 0 22411843.809 -3632717.137 -11628404.431 10 0 60419 60300.00000 0 23677220.278 -3734502.771 -8734163.086 10 0 60419 61200.00000 0 24565127.994 -3921262.794 -5670315.723 10 0 60419 62100.00000 0 25054616.958 -4139195.440 -2496386.545 10 0 60419 63000.00000 0 25138000.538 -4332146.959 725995.639 10 0 60419 63900.00000 0 24821101.159 -4444220.691 3934294.427 10 0 60419 64800.00000 0 24122949.096 -4422377.375 7066278.084 10 0 60419 65700.00000 0 23074948.070 -4218916.530 10061223.463 10 0 60419 66600.00000 0 21719543.494 -3793734.020 12861088.288 10 0 60419 67500.00000 0 20108449.861 -3116260.513 15411629.409 10 0 60419 68400.00000 0 18300511.843 -2166999.066 17663445.927 10 0 60419 69300.00000 0 16359288.642 -938597.009 19572927.675 10 0 60419 70200.00000 0 14350462.216 563593.312 21103091.597 10 0 60419 71100.00000 0 12339176.965 2321489.113 22224290.778 10 0 60419 72000.00000 0 10387420.965 4304789.092 22914783.270 10 0 60419 72900.00000 0 8551556.841 6472002.626 23161150.488 10 0 60419 73800.00000 0 6880103.978 8771954.884 22958557.525 10 0 60419 74700.00000 0 5411863.387 11145706.884 22310850.545 10 0 60419 75600.00000 0 4174462.367 13528812.390 21230489.140 10 0 60419 76500.00000 0 3183378.854 15853819.499 19738314.390 10 0 60419 77400.00000 0 2441485.659 18052914.344 17863156.223 10 0 60419 78300.00000 0 1939133.359 20060598.112 15641286.571 10 0 60419 79200.00000 0 1654768.255 21816286.636 13115727.659 10 0 60419 80100.00000 0 1556059.552 23266724.516 10335427.669 10 0 60419 81000.00000 0 1601488.451 24368112.845 7354318.702 10 0 60419 81900.00000 0 1742332.264 25087861.104 4230274.537 10 0 60419 82800.00000 0 1924959.714 25405889.070 1023988.036 10 0 60419 83700.00000 0 2093340.049 25315423.216 -2202210.037 10 0 60419 84600.00000 0 2191659.187 24823253.223 -5385567.512 10 0 60419 85500.00000 0 2166931.162 23949436.952 -8464138.263 10 0 60420 0.00000 0 1971493.068 22726465.785 -11377995.612 10 0 60420 900.00000 0 1565276.272 21197924.295 -14070408.629 10 0 60420 1800.00000 0 917756.491 19416702.261 -16488953.555 10 0 60420 2700.00000 0 9498.299 17442832.155 -18586543.015 10 0 60420 3600.00000 0 -1166772.514 15341044.839 -20322348.404 10 0 60420 4500.00000 0 -2605615.480 13178145.970 -21662598.565 10 0 60420 5400.00000 0 -4288865.430 11020323.655 -22581238.784 10 0 60420 6300.00000 0 -6186167.386 8930500.469 -23060437.316 10 0 60420 7200.00000 0 -8256034.703 6965840.837 -23090929.796 10 0 60420 8100.00000 0 -10447386.703 5175517.839 -22672195.194 10 0 60420 9000.00000 0 -12701501.817 3598832.285 -21812460.347 10 0 60420 9900.00000 0 -14954304.798 2263761.870 -20528533.396 10 0 60420 10800.00000 0 -17138892.482 1185999.818 -18845469.830 10 0 60420 11700.00000 0 -19188192.707 368521.744 -16796077.995 10 0 60420 12600.00000 0 -21037645.288 -198302.853 -14420274.060 10 0 60420 13500.00000 0 -22627793.148 -536061.024 -11764299.333 10 0 60420 14400.00000 0 -23906675.504 -677137.905 -8879815.439 10 0 60420 15300.00000 0 -24831923.277 -663099.901 -5822895.332 10 0 60420 16200.00000 0 -25372469.543 -542689.255 -2652930.104 10 0 60420 17100.00000 0 -25509804.004 -369515.977 568526.848 10 0 60420 18000.00000 0 -25238719.667 -199545.659 3778955.479 10 0 60420 18900.00000 0 -24567521.261 -88490.059 6916081.166 10 0 60420 19800.00000 0 -23517687.476 -89211.170 9919079.573 10 0 60420 20700.00000 0 -22123001.905 -249248.653 12729751.002 10 0 60420 21600.00000 0 -20428189.656 -608575.042 15293641.794 10 0 60420 22500.00000 0 -18487116.982 -1197673.364 17561091.584 10 0 60420 23400.00000 0 -16360629.210 -2036018.142 19488186.836 10 0 60420 24300.00000 0 -14114116.937 -3131023.816 21037603.075 10 0 60420 25200.00000 0 -11814911.335 -4477505.109 22179320.499 10 0 60420 26100.00000 0 -9529616.205 -6057672.669 22891199.953 10 0 60420 27000.00000 0 -7321486.695 -7841665.167 23159408.913 10 0 60420 27900.00000 0 -5247962.487 -9788597.000 22978689.730 10 0 60420 28800.00000 0 -3358456.832 -11848079.424 22352465.100 10 0 60420 29700.00000 0 -1692492.221 -13962153.415 21292778.524 10 0 60420 30600.00000 0 -278259.296 -16067555.470 19820070.351 10 0 60420 31500.00000 0 868341.699 -18098223.472 17962792.852 10 0 60420 32400.00000 0 1744137.495 -19987939.492 15756870.669 10 0 60420 33300.00000 0 2358578.463 -21673000.250 13245015.862 10 0 60420 34200.00000 0 2733099.838 -23094804.165 10475909.638 10 0 60420 35100.00000 0 2899974.369 -24202246.899 7503265.594 10 0 60420 36000.00000 0 2900704.739 -24953824.657 4384791.845 10 0 60420 36900.00000 0 2784023.611 -25319356.304 1181071.769 10 0 60420 37800.00000 0 2603586.124 -25281250.960 -2045614.910 10 0 60420 38700.00000 0 2415452.909 -24835266.667 -5232507.519 10 0 60420 39600.00000 0 2275470.999 -23990727.067 -8317591.971 10 0 60420 40500.00000 0 2236664.618 -22770185.960 -11240815.692 10 0 60420 41400.00000 0 2346747.625 -21208553.069 -13945265.331 10 0 60420 42300.00000 0 2645864.386 -19351717.268 -16378283.292 10 0 60420 43200.00000 0 3164656.111 -17254724.926 -18492500.475 10 0 60420 44100.00000 0 3922735.892 -14979589.857 -20246764.442 10 0 60420 45000.00000 0 4927638.141 -12592826.989 -21606944.460 10 0 60420 45900.00000 0 6174287.914 -10162813.350 -22546597.557 10 0 60420 46800.00000 0 7645013.470 -7757087.065 -23047482.669 10 0 60420 47700.00000 0 9310102.293 -5439697.431 -23099913.084 10 0 60420 48600.00000 0 11128877.766 -3268716.654 -22702940.686 10 0 60420 49500.00000 0 13051251.756 -1294016.721 -21864368.849 10 0 60420 50400.00000 0 15019688.191 444596.499 -20600594.149 10 0 60420 51300.00000 0 16971495.492 1918815.152 -18936280.435 10 0 60420 52200.00000 0 18841351.887 3112768.843 -16903871.944 10 0 60420 53100.00000 0 20563957.815 4023434.095 -14542955.331 10 0 60420 54000.00000 0 22076704.352 4660498.514 -11899483.345 10 0 60420 54900.00000 0 23322245.926 5045687.421 -9024875.564 10 0 60420 55800.00000 0 24250869.632 5211583.172 -5975014.064 10 0 60420 56700.00000 0 24822562.070 5199988.754 -2809153.875 10 0 60420 57600.00000 0 25008687.427 5059906.223 411230.255 10 0 60420 58500.00000 0 24793206.859 4845216.648 3623638.062 10 0 60420 59400.00000 0 24173388.622 4612160.496 6765755.506 10 0 60420 60300.00000 0 23159979.707 4416725.563 9776660.472 10 0 60420 61200.00000 0 21776832.341 4312053.126 12597999.105 10 0 60420 62100.00000 0 20060001.368 4345971.900 15175110.261 10 0 60420 63000.00000 0 18056350.459 4558763.766 17458076.856 10 0 60420 63900.00000 0 15821725.346 4981255.270 19402684.413 10 0 60420 64800.00000 0 13418769.933 5633315.136 20971269.144 10 0 60420 65700.00000 0 10914475.628 6522821.002 22133440.098 10 0 60420 66600.00000 0 8377564.988 7645139.098 22866662.262 10 0 60420 67500.00000 0 5875817.296 8983139.289 23156690.115 10 0 60420 68400.00000 0 3473445.888 10507745.889 22997843.746 10 0 60420 69300.00000 0 1228634.852 12179002.485 22393122.376 10 0 60420 70200.00000 0 -808663.883 13947607.796 21354152.915 10 0 60420 71100.00000 0 -2598582.668 15756860.105 19900973.978 10 0 60420 72000.00000 0 -4112763.340 17544930.606 18061658.711 10 0 60420 72900.00000 0 -5335296.850 19247372.164 15871782.591 10 0 60420 73800.00000 0 -6263138.595 20799759.707 13373745.285 10 0 60420 74700.00000 0 -6905982.339 22140352.469 10615958.541 10 0 60420 75600.00000 0 -7285598.171 23212666.803 7651914.766 10 0 60420 76500.00000 0 -7434662.412 23967851.402 4539153.568 10 0 60420 77400.00000 0 -7395128.869 24366764.503 1338145.925 10 0 60420 78300.00000 0 -7216210.399 24381664.737 -1888882.445 10 0 60420 79200.00000 0 -6952056.518 23997443.220 -5079165.315 10 0 60420 80100.00000 0 -6659225.968 23212343.691 -8170623.504 10 0 60420 81000.00000 0 -6394062.142 22038139.056 -11103081.020 10 0 60420 81900.00000 0 -6210083.623 20499755.782 -13819445.143 10 0 60420 82800.00000 0 -6155501.577 18634361.024 -16266826.458 10 0 60420 83700.00000 0 -6270970.391 16489950.240 -18397576.156 10 0 60420 84600.00000 0 -6587667.982 14123494.248 -20170219.711 10 0 60420 85500.00000 0 -7125788.091 11598723.325 -21550268.280 99